Adak, AK

4:46 PM HST on February 23, 2017 (GMT -1000)
Adak

Weather History for PADK - February, 2014

Change the Weather History Date:

Monday, February 17, 2014

  Actual Average Record
Temperature  
Mean Temperature 26 °F -  
Max Temperature 30 °F 37 °F 48 °F (2009)
Min Temperature 23 °F 27 °F 15 °F (1971)
Degree Days  
Heating Degree Days 38    
Moisture  
Dew Point 15 °F    
Average Humidity 61    
Maximum Humidity 80    
Minimum Humidity 45    
Precipitation  
Precipitation 0.00 in - - ()
Sea Level Pressure  
Sea Level Pressure 29.76 in    
Wind  
Wind Speed 14 mph (NNW)    
Max Wind Speed 25 mph    
Max Gust Speed 33 mph    
Visibility 9 miles    
Events      
Averages and records for this station are not official NWS values.
T = Trace of Precipitation, MM = Missing Value Source: NWS Daily Summary

Daily Weather History Graph

Daily Weather History Graph

Search for Another Location

Airport or City:

Trip Planner

Search our weather history database for the weather conditions in past years. The results will help you decide how hot, cold, wet, or windy it might be!

Date:

Astronomy

Feb. 17, 2014 Rise Set
Actual Time 8:56 AM HST 7:05 PM HST
Civil Twilight 8:22 AM HST 7:39 PM HST
Nautical Twilight 7:42 AM HST 8:19 PM HST
Astronomical Twilight 7:04 AM HST 8:58 PM HST
Moon 10:42 PM HST (2/17) 9:39 AM HST (2/17)
Length of Visible Light 11h 17m
Length of Day
10h 08m
Waning Gibbous, 92% of the Moon is Illuminated
Feb 17
Waning Gibbous
Feb 22
Last Quarter
Feb 28
New
Mar 8
First Quarter
Mar 16
Full

Hourly Weather History & Observations

Time (HST) Temp. Windchill Dew Point Humidity Pressure Visibility Wind Dir Wind Speed Gust Speed Precip Events Conditions
12:16 AM 26.6 °F 14.7 °F 10.4 °F 51% 29.81 in 10.0 mi NW 15.0 mph - N/A   Scattered Clouds
12:36 AM 26.6 °F 13.8 °F 17.6 °F 69% 29.81 in 2.5 mi NNW 17.3 mph 28.8 mph N/A   Mostly Cloudy
12:56 AM 26.6 °F 13.4 °F 15.8 °F 64% 29.81 in 10.0 mi NNW 18.4 mph 27.6 mph N/A   Scattered Clouds
1:16 AM 26.6 °F 14.3 °F 15.8 °F 64% 29.81 in 10.0 mi NNW 16.1 mph 31.1 mph N/A   Scattered Clouds
1:36 AM 26.6 °F 12.4 °F 15.8 °F 64% 29.81 in 10.0 mi NNW 21.9 mph 32.2 mph N/A   Mostly Cloudy
1:56 AM 26.6 °F 14.7 °F 14.0 °F 59% 29.81 in 10.0 mi NNW 15.0 mph 24.2 mph N/A   Overcast
2:16 AM 26.6 °F 13.1 °F 12.2 °F 55% 29.81 in 10.0 mi NNW 19.6 mph 27.6 mph N/A   Scattered Clouds
2:36 AM 28.4 °F 15.8 °F 12.2 °F 51% 29.81 in 10.0 mi NNW 18.4 mph 26.5 mph N/A   Mostly Cloudy
2:56 AM 26.6 °F 11.4 °F 17.6 °F 69% 29.82 in 6.0 mi NNW 25.3 mph 33.4 mph N/A   Mostly Cloudy
3:16 AM 26.6 °F 15.2 °F 14.0 °F 59% 29.82 in 10.0 mi NNW 13.8 mph 26.5 mph N/A   Mostly Cloudy
3:36 AM 28.4 °F 15.4 °F 15.8 °F 59% 29.82 in 10.0 mi NNW 19.6 mph 26.5 mph N/A   Overcast
3:56 AM 26.6 °F 13.8 °F 17.6 °F 69% 29.82 in 4.0 mi NW 17.3 mph 26.5 mph N/A   Overcast
4:16 AM 28.4 °F 17.5 °F 14.0 °F 55% 29.81 in 10.0 mi NNW 13.8 mph 19.6 mph N/A   Overcast
4:36 AM 26.6 °F 14.7 °F 15.8 °F 64% 29.82 in 4.0 mi NW 15.0 mph - N/A   Mostly Cloudy
4:56 AM 26.6 °F 13.4 °F 15.8 °F 64% 29.82 in 9.0 mi NNW 18.4 mph 21.9 mph N/A   Overcast
5:16 AM 26.6 °F 13.4 °F 15.8 °F 64% 29.81 in 10.0 mi North 18.4 mph 23.0 mph N/A   Overcast
5:36 AM 26.6 °F 14.7 °F 15.8 °F 64% 29.81 in 5.0 mi NW 15.0 mph 24.2 mph N/A   Mostly Cloudy
5:56 AM 28.4 °F 16.6 °F 15.8 °F 59% 29.81 in 8.0 mi NNW 16.1 mph 29.9 mph N/A   Overcast
6:16 AM 28.4 °F 13.8 °F 12.2 °F 51% 29.81 in 8.0 mi NNW 25.3 mph 31.1 mph N/A   Overcast
6:36 AM 26.6 °F 13.8 °F 12.2 °F 55% 29.81 in 10.0 mi NNW 17.3 mph 20.7 mph N/A   Overcast
6:56 AM 26.6 °F 14.7 °F 17.6 °F 69% 29.82 in 2.5 mi WNW 15.0 mph - N/A   Overcast
7:16 AM 26.6 °F 14.3 °F 14.0 °F 59% 29.81 in 10.0 mi NNW 16.1 mph 20.7 mph N/A   Overcast
7:36 AM 26.6 °F 12.4 °F 17.6 °F 69% 29.81 in 10.0 mi North 21.9 mph 25.3 mph N/A   Overcast
7:56 AM 26.6 °F 13.1 °F 14.0 °F 59% 29.81 in 10.0 mi NNW 19.6 mph 26.5 mph N/A   Overcast
8:16 AM 26.6 °F 17.5 °F 15.8 °F 64% 29.81 in 10.0 mi NW 9.2 mph - N/A   Mostly Cloudy
8:36 AM 28.4 °F 16.6 °F 12.2 °F 51% 29.80 in 10.0 mi NNW 16.1 mph - N/A   Mostly Cloudy
8:56 AM 26.6 °F 13.1 °F 10.4 °F 51% 29.80 in 10.0 mi NNW 19.6 mph 23.0 mph N/A   Overcast
9:16 AM 26.6 °F 14.3 °F 14.0 °F 59% 29.80 in 10.0 mi NW 16.1 mph 19.6 mph N/A   Overcast
9:36 AM 26.6 °F 14.3 °F 14.0 °F 59% 29.81 in 10.0 mi NW 16.1 mph - N/A   Overcast
9:56 AM 28.4 °F 15.8 °F 10.4 °F 47% 29.81 in 10.0 mi NW 18.4 mph 23.0 mph N/A   Overcast
10:16 AM 26.6 °F 17.5 °F 15.8 °F 64% 29.80 in 10.0 mi WNW 9.2 mph - N/A   Overcast
10:36 AM 26.6 °F 16.8 °F 17.6 °F 69% 29.80 in 10.0 mi WNW 10.4 mph - N/A   Overcast
10:56 AM 28.4 °F 17.5 °F 14.0 °F 55% 29.80 in 10.0 mi NW 13.8 mph 18.4 mph N/A   Overcast
11:16 AM 28.4 °F 19.1 °F 12.2 °F 51% 29.80 in 10.0 mi NW 10.4 mph 20.7 mph N/A   Overcast
11:36 AM 26.6 °F 15.7 °F 19.4 °F 74% 29.80 in 3.0 mi NW 12.7 mph - N/A   Overcast
11:56 AM 28.4 °F 15.8 °F 17.6 °F 64% 29.80 in 9.0 mi North 18.4 mph - N/A   Mostly Cloudy
12:16 PM 26.6 °F 14.3 °F 17.6 °F 69% 29.80 in 3.0 mi NW 16.1 mph - N/A   Mostly Cloudy
12:36 PM 28.4 °F 18.0 °F 15.8 °F 59% 29.79 in 10.0 mi WNW 12.7 mph - N/A   Mostly Cloudy
12:56 PM 28.4 °F 19.7 °F 14.0 °F 55% 29.79 in 10.0 mi NW 9.2 mph - N/A   Overcast
1:16 PM 28.4 °F 20.4 °F 15.8 °F 59% 29.79 in 10.0 mi North 8.1 mph - N/A   Overcast
1:36 PM 28.4 °F 20.4 °F 15.8 °F 59% 29.78 in 10.0 mi NW 8.1 mph - N/A   Overcast
1:56 PM 28.4 °F 18.5 °F 15.8 °F 59% 29.77 in 10.0 mi NNW 11.5 mph - N/A   Overcast
2:16 PM 28.4 °F 21.2 °F 15.8 °F 59% 29.76 in 10.0 mi North 6.9 mph - N/A   Overcast
2:36 PM 28.4 °F 18.5 °F 15.8 °F 59% 29.76 in 10.0 mi North 11.5 mph 18.4 mph N/A   Overcast
2:56 PM 28.4 °F 17.5 °F 17.6 °F 64% 29.76 in 10.0 mi North 13.8 mph 20.7 mph N/A   Overcast
3:16 PM 28.4 °F 19.1 °F 17.6 °F 64% 29.75 in 10.0 mi North 10.4 mph - N/A   Overcast
3:36 PM 28.4 °F 17.5 °F 15.8 °F 59% 29.75 in 10.0 mi NNW 13.8 mph - N/A   Overcast
3:56 PM 28.4 °F 22.2 °F 15.8 °F 59% 29.73 in 10.0 mi NNW 5.8 mph - N/A   Overcast
4:16 PM 28.4 °F 21.2 °F 15.8 °F 59% 29.73 in 10.0 mi North 6.9 mph - N/A   Overcast
4:36 PM 28.4 °F 19.7 °F 15.8 °F 59% 29.73 in 10.0 mi North 9.2 mph - N/A   Overcast
4:56 PM 28.4 °F 19.1 °F 15.8 °F 59% 29.72 in 10.0 mi North 10.4 mph - N/A   Overcast
5:16 PM 28.4 °F 24.6 °F 14.0 °F 55% 29.72 in 10.0 mi WNW 3.5 mph - N/A   Overcast
5:36 PM 28.4 °F 17.0 °F 15.8 °F 59% 29.71 in 10.0 mi NNW 15.0 mph - N/A   Overcast
5:56 PM 28.4 °F 20.4 °F 15.8 °F 59% 29.71 in 10.0 mi NNW 8.1 mph - N/A   Overcast
6:16 PM 28.4 °F 20.4 °F 15.8 °F 59% 29.71 in 10.0 mi NNE 8.1 mph - N/A   Overcast
6:36 PM 26.6 °F - 17.6 °F 69% 29.70 in 10.0 mi Calm Calm - N/A   Overcast
6:56 PM 28.4 °F 20.4 °F 14.0 °F 55% 29.70 in 10.0 mi NNW 8.1 mph - N/A   Overcast
7:16 PM 26.6 °F 18.2 °F 14.0 °F 59% 29.70 in 10.0 mi NNW 8.1 mph - N/A   Overcast
7:36 PM 26.6 °F 18.2 °F 12.2 °F 55% 29.69 in 10.0 mi North 8.1 mph - N/A   Overcast
7:56 PM 26.6 °F 20.0 °F 15.8 °F 64% 29.69 in 10.0 mi NW 5.8 mph - N/A   Overcast
8:16 PM 26.6 °F 20.0 °F 14.0 °F 59% 29.69 in 10.0 mi NW 5.8 mph - N/A   Overcast
8:36 PM 26.6 °F 22.6 °F 15.8 °F 64% 29.68 in 10.0 mi NW 3.5 mph - N/A   Overcast
8:56 PM 26.6 °F - 15.8 °F 64% 29.68 in 10.0 mi Calm Calm - N/A   Mostly Cloudy
9:16 PM 26.6 °F 14.7 °F 17.6 °F 69% 29.68 in 10.0 mi NNW 15.0 mph - N/A   Overcast
9:36 PM 24.8 °F 15.3 °F 17.6 °F 74% 29.68 in 10.0 mi NNW 9.2 mph - N/A   Mostly Cloudy
9:56 PM 24.8 °F 19.1 °F 17.6 °F 74% 29.67 in 10.0 mi NW 4.6 mph - N/A   Overcast
10:16 PM 24.8 °F 20.5 °F 15.8 °F 69% 29.67 in 10.0 mi WNW 3.5 mph - N/A   Overcast
10:36 PM 24.8 °F 14.0 °F 15.8 °F 69% 29.66 in 3.0 mi NNW 11.5 mph - N/A   Mostly Cloudy
10:56 PM 24.8 °F 16.1 °F 19.4 °F 80% 29.66 in 1.5 mi WNW 8.1 mph - N/A   Overcast
11:16 PM 24.8 °F 17.9 °F 19.4 °F 80% 29.66 in 5.0 mi SW 5.8 mph - N/A   Mostly Cloudy
11:36 PM 23.0 °F 15.8 °F 17.6 °F 80% 29.65 in 10.0 mi SW 5.8 mph - N/A   Overcast
11:56 PM 23.0 °F 15.8 °F 17.6 °F 80% 29.64 in 10.0 mi SW 5.8 mph - N/A   Overcast